TimeEEST,TemperatureF,Dew PointF,Humidity,Sea Level PressureIn,VisibilityMPH,Wind Direction,Wind SpeedMPH,Gust SpeedMPH,PrecipitationIn,Events,Conditions,WindDirDegrees,DateUTC
12:50 AM,66.2,60.8,83,29.95,6.2,Calm,Calm,-,N/A,,Partly Cloudy,0,2012-10-07 21:50:00
1:50 AM,64.4,60.8,88,29.95,6.2,Calm,Calm,-,N/A,,Scattered Clouds,0,2012-10-07 22:50:00
2:50 AM,64.4,60.8,88,29.92,6.2,ENE,4.6,-,N/A,,Scattered Clouds,60,2012-10-07 23:50:00
3:00 AM,65,61,83,29.94,6,ENE,4.6,,,,Scattered Clouds,60,2012-10-08 00:00:00
4:50 AM,68.0,62.6,83,29.92,6.2,Calm,Calm,-,N/A,,Scattered Clouds,0,2012-10-08 01:50:00
5:50 AM,68.0,62.6,83,29.92,6.2,East,4.6,-,N/A,,Scattered Clouds,80,2012-10-08 02:50:00
6:20 AM,68.0,62.6,83,29.92,6.2,East,4.6,-,N/A,,Scattered Clouds,80,2012-10-08 03:20:00
6:50 AM,68.0,62.6,83,29.89,6.2,East,4.6,-,N/A,,Mostly Cloudy,80,2012-10-08 03:50:00
7:20 AM,66.2,62.6,88,29.89,6.2,East,5.8,-,N/A,,Mostly Cloudy,90,2012-10-08 04:20:00
7:50 AM,68.0,64.4,88,29.89,6.2,ENE,5.8,-,N/A,,Mostly Cloudy,70,2012-10-08 04:50:00
8:20 AM,68.0,64.4,88,29.89,6.2,NE,6.9,-,N/A,,Mostly Cloudy,50,2012-10-08 05:20:00
8:50 AM,69.8,64.4,83,29.89,6.2,ENE,8.1,-,N/A,,Mostly Cloudy,60,2012-10-08 05:50:00
9:00 AM,69,64,79,29.91,6,ENE,8.1,,,,Partly Cloudy,60,2012-10-08 06:00:00
9:20 AM,69.8,64.4,83,29.92,6.2,ENE,5.8,-,N/A,,Mostly Cloudy,70,2012-10-08 06:20:00
9:50 AM,71.6,64.4,78,29.92,6.2,ENE,8.1,-,N/A,,Mostly Cloudy,70,2012-10-08 06:50:00
10:20 AM,73.4,62.6,69,29.92,6.2,NE,8.1,-,N/A,,Mostly Cloudy,40,2012-10-08 07:20:00
10:50 AM,75.2,62.6,65,29.92,6.2,ENE,8.1,-,N/A,,Mostly Cloudy,60,2012-10-08 07:50:00
11:20 AM,75.2,62.6,65,29.92,6.2,ENE,5.8,-,N/A,,Mostly Cloudy,60,2012-10-08 08:20:00
11:50 AM,75.2,62.6,65,29.92,6.2,ENE,4.6,-,N/A,,Scattered Clouds,70,2012-10-08 08:50:00
12:20 PM,77.0,60.8,57,29.92,6.2,NE,4.6,-,N/A,,Scattered Clouds,50,2012-10-08 09:20:00
12:50 PM,75.2,62.6,65,29.92,6.2,ENE,5.8,-,N/A,,Scattered Clouds,60,2012-10-08 09:50:00
1:20 PM,77.0,62.6,61,29.92,6.2,ENE,5.8,-,N/A,,Scattered Clouds,70,2012-10-08 10:20:00
1:50 PM,78.8,59.0,51,29.89,6.2,ENE,4.6,-,N/A,,Scattered Clouds,70,2012-10-08 10:50:00
2:20 PM,80.6,62.6,54,29.89,6.2,NW,5.8,-,N/A,,Scattered Clouds,320,2012-10-08 11:20:00
2:50 PM,80.6,62.6,54,29.89,6.2,WNW,5.8,-,N/A,,Partly Cloudy,300,2012-10-08 11:50:00
3:00 PM,80,62,45,29.89,6,WNW,5.8,,,,Scattered Clouds,300,2012-10-08 12:00:00
3:20 PM,80.6,62.6,54,29.86,6.2,WNW,5.8,-,N/A,,Partly Cloudy,300,2012-10-08 12:20:00
3:50 PM,78.8,62.6,57,29.86,6.2,WNW,8.1,-,N/A,,Partly Cloudy,300,2012-10-08 12:50:00
4:20 PM,78.8,62.6,57,29.86,6.2,WNW,6.9,-,N/A,,Partly Cloudy,300,2012-10-08 13:20:00
4:50 PM,78.8,62.6,57,29.86,6.2,WNW,8.1,-,N/A,,Partly Cloudy,290,2012-10-08 13:50:00
5:20 PM,77.0,64.4,65,29.86,6.2,WNW,9.2,-,N/A,,Partly Cloudy,300,2012-10-08 14:20:00
5:50 PM,77.0,64.4,65,29.86,6.2,WNW,9.2,-,N/A,,Partly Cloudy,300,2012-10-08 14:50:00
6:20 PM,77.0,64.4,65,29.86,6.2,WNW,9.2,-,N/A,,Partly Cloudy,300,2012-10-08 15:20:00
6:50 PM,73.4,64.4,73,29.86,6.2,WNW,10.4,-,N/A,,Partly Cloudy,300,2012-10-08 15:50:00
7:20 PM,73.4,64.4,73,29.86,6.2,West,11.5,-,N/A,,Partly Cloudy,280,2012-10-08 16:20:00
7:50 PM,73.4,64.4,73,29.86,6.2,West,11.5,-,N/A,,Partly Cloudy,280,2012-10-08 16:50:00
8:20 PM,73.4,64.4,73,29.86,6.2,West,9.2,-,N/A,,Partly Cloudy,280,2012-10-08 17:20:00
8:50 PM,73.4,64.4,73,29.86,6.2,WNW,8.1,-,N/A,,Partly Cloudy,290,2012-10-08 17:50:00
9:00 PM,73,65,68,29.88,6,WNW,8.1,,,,Scattered Clouds,290,2012-10-08 18:00:00
9:50 PM,71.6,66.2,83,29.89,6.2,WNW,8.1,-,N/A,,Partly Cloudy,290,2012-10-08 18:50:00
10:50 PM,71.6,64.4,78,29.89,6.2,West,5.8,-,N/A,,Partly Cloudy,280,2012-10-08 19:50:00
11:50 PM,69.8,64.4,83,29.89,-9999.0,Variable,3.5,-,N/A,,Clear,0,2012-10-08 20:50:00